Location: An Tulaigh
(53.1928°N, 8.1647°W)
Time: 23:13:04
(UTC+00:00)

Cosmos 1455 Rocket - Pass Details

Date: 15 May 2026
Orbit: 597 x 623 km, 82.5° (Epoch: 11 June)

Event Time Altitude Azimuth Distance (km) Brightness Sun altitude
Rises 21:22:23 0° 208° (SSW) 2,887 6.3 -7.3°
Reaches altitude 10° 21:24:42 10° 215° (SW) 1,983 5.5 -7.6°
Maximum altitude 21:28:54 43° 288° (WNW) 876 4.4 -8.0°
Drops below altitude 10° 21:33:06 10° 0° (N) 1,984 6.4 -8.4°
Sets 21:35:25 0° 7° (N) 2,889 7.2 -8.6°
